This is the latest recevied weather packets stored in our database for station/object W1ERB-13. If no packets are shown the sender has not sent any weather packets the latest 10 day(s).
| Time | Temp. | Humidity | Pressure | Rain* | Wind** | Luminosity | Snow |
|---|---|---|---|---|---|---|---|
| 1778154379 | 8.89° C | 91% | 1009.7 hPa | 0 mm | - | 145 W/m² | - |
| 1778154076 | 8.33° C | 92% | 1009.7 hPa | 0 mm | - | 107 W/m² | - |
| 1778153773 | 8.33° C | 95% | 1009.3 hPa | 0 mm | - | 92 W/m² | - |
| 1778153470 | 8.33° C | 96% | 1009.2 hPa | 0 mm | - | 89 W/m² | - |
| 1778153169 | 8.33° C | 97% | 1009.4 hPa | 0 mm | - | 85 W/m² | - |
| 1778152865 | 8.33° C | 98% | 1009.4 hPa | 0 mm | - | 65 W/m² | - |
| 1778152562 | 8.33° C | 98% | 1009.6 hPa | 0 mm | - | 56 W/m² | - |
| 1778152258 | 8.33° C | 98% | 1009.4 hPa | 0 mm | - | 36 W/m² | - |
| 1778151955 | 8.33° C | 98% | 1009.3 hPa | 0 mm | - | 47 W/m² | - |
| 1778151651 | 8.33° C | 98% | 1009.3 hPa | 0 mm | - | 33 W/m² | - |
| 1778151348 | 8.33° C | 98% | 1009 hPa | 0 mm | - | 26 W/m² | - |
| 1778151044 | 8.33° C | 98% | 1009 hPa | 0 mm | - | 17 W/m² | - |
| 1778150742 | 8.33° C | 98% | 1008.9 hPa | 0 mm | - | 20 W/m² | - |
| 1778150438 | 8.33° C | 98% | 1009 hPa | 0 mm | - | 17 W/m² | - |
| 1778150134 | 8.33° C | 98% | 1008.8 hPa | 0 mm | - | 10 W/m² | - |
| 1778149831 | 8.33° C | 98% | 1009 hPa | 0 mm | - | 10 W/m² | - |
| 1778149528 | 8.33° C | 98% | 1008.6 hPa | 0 mm | - | 9 W/m² | - |
| 1778149224 | 8.33° C | 98% | 1008.7 hPa | 0 mm | - | 7 W/m² | - |
| 1778148920 | 8.33° C | 98% | 1008.7 hPa | 0 mm | - | 5 W/m² | - |
| 1778148616 | 8.33° C | 98% | 1008.4 hPa | 0 mm | - | 3 W/m² | - |
| 1778148314 | 8.33° C | 98% | 1008.5 hPa | 0 mm | - | 2 W/m² | - |
| 1778148011 | 8.33° C | 98% | 1008.3 hPa | 0 mm | - | 1 W/m² | - |
| 1778147709 | 8.89° C | 99% | 1008.5 hPa | 0 mm | - | 0 W/m² | - |
| 1778147405 | 8.89° C | 99% | 1008.4 hPa | 0 mm | - | 0 W/m² | - |
| 1778147101 | 8.89° C | 99% | 1008.3 hPa | 0 mm | - | 0 W/m² | - |
* Rain latest hour (hover to see other rain measurements)
** Current wind speed in m/s (hover to see current wind gust speed)